Weather History for Poplar Bluff, MO

Change the Weather History Date:

Friday, November 2, 2012

  Actual Average Record
Temperature  
Mean Temperature 52 °F -  
Max Temperature 66 °F 66 °F 83 °F (1924)
Min Temperature 41 °F 44 °F 22 °F (1954)
Degree Days  
Heating Degree Days 12    
Growing Degree Days 2 (Base 50)    
Moisture  
Dew Point 37 °F    
Average Humidity 57    
Maximum Humidity 89    
Minimum Humidity 29    
Precipitation  
Precipitation 0.00 in - - ()
Sea Level Pressure  
Sea Level Pressure 29.99 in    
Wind  
Wind Speed 4 mph (NE)    
Max Wind Speed 10 mph    
Max Gust Speed -    
Visibility 10 miles    
Events      
Averages and records for this station are not official NWS values.
T = Trace of Precipitation, MM = Missing Value Source: NWS Daily Summary

Daily Weather History Graph

Daily Weather History Graph

Search for Another Location

Airport:

Trip Planner

Search our weather history database for the weather conditions in past years. The results will help you decide how hot, cold, wet, or windy it might be!

Date:

Astronomy

Nov. 02, 2012 Rise Set
Actual Time 7:26 AM CDT 6:02 PM CDT
Civil Twilight 6:59 AM CDT 6:29 PM CDT
Nautical Twilight 6:28 AM CDT 7:00 PM CDT
Astronomical Twilight 5:58 AM CDT 7:30 PM CDT
Moon 8:53 PM CDT (11/2) 10:43 AM CDT (11/2)
Length of Visible Light 11h 29m
Length of Day
10h 36m
Waning Gibbous, 87% of the Moon is Illuminated
Nov 2
Waning Gibbous
Nov 6
Last Quarter
Nov 13
New
Nov 20
First Quarter
Nov 28
Full

Hourly Weather History & Observations

Time (CDT) Temp. Windchill Dew Point Humidity Pressure Visibility Wind Dir Wind Speed Gust Speed Precip Events Conditions
12:53 AM 51.1 °F - 42.1 °F 71% 29.91 in 10.0 mi SW 4.6 mph - N/A   Clear
1:53 AM 50.0 °F - 42.1 °F 74% 29.91 in 10.0 mi SW 3.5 mph - N/A   Clear
2:53 AM 50.0 °F - 42.1 °F 74% 29.91 in 9.0 mi Calm Calm - N/A   Clear
3:53 AM 46.9 °F - 41.0 °F 80% 29.91 in 9.0 mi Calm Calm - N/A   Clear
4:53 AM 44.1 °F - 39.9 °F 85% 29.92 in 8.0 mi Calm Calm - N/A   Clear
5:53 AM 41.0 °F - 37.9 °F 89% 29.96 in 8.0 mi Calm Calm - N/A   Clear
6:53 AM 42.1 °F 38.4 °F 37.9 °F 85% 29.96 in 10.0 mi North 5.8 mph - N/A   Clear
7:53 AM 48.0 °F - 37.9 °F 68% 29.99 in 10.0 mi NE 6.9 mph - N/A   Clear
8:53 AM 52.0 °F - 39.0 °F 61% 30.02 in 10.0 mi Calm Calm - N/A   Clear
9:53 AM 55.9 °F - 37.9 °F 51% 30.05 in 10.0 mi NE 5.8 mph - N/A   Clear
10:53 AM 57.9 °F - 35.1 °F 42% 30.06 in 10.0 mi ENE 8.1 mph - N/A   Clear
11:53 AM 61.0 °F - 35.1 °F 38% 30.04 in 10.0 mi ENE 10.4 mph - N/A   Clear
12:53 PM 62.1 °F - 30.9 °F 31% 30.03 in 10.0 mi NE 10.4 mph - N/A   Clear
1:53 PM 64.0 °F - 33.1 °F 31% 30.01 in 10.0 mi Variable 5.8 mph - N/A   Clear
2:53 PM 64.9 °F - 34.0 °F 32% 29.99 in 10.0 mi ENE 6.9 mph - N/A   Clear
3:53 PM 64.9 °F - 32.0 °F 29% 29.99 in 10.0 mi East 6.9 mph - N/A   Clear
4:53 PM 64.0 °F - 33.1 °F 31% 29.99 in 10.0 mi NE 4.6 mph - N/A   Clear
5:53 PM 60.1 °F - 36.0 °F 41% 30.00 in 10.0 mi ENE 3.5 mph - N/A   Clear
6:53 PM 55.9 °F - 36.0 °F 47% 30.01 in 10.0 mi Calm Calm - N/A   Clear
7:53 PM 52.0 °F - 37.0 °F 57% 30.01 in 10.0 mi Calm Calm - N/A   Clear
8:53 PM 48.9 °F - 39.0 °F 69% 30.02 in 10.0 mi Calm Calm - N/A   Clear
9:53 PM 51.1 °F - 37.0 °F 59% 30.01 in 10.0 mi NE 5.8 mph - N/A   Clear
10:53 PM 48.9 °F - 37.0 °F 64% 30.01 in 10.0 mi NE 4.6 mph - N/A   Clear
11:53 PM 46.9 °F - 37.9 °F 71% 30.01 in 10.0 mi NNE 3.5 mph - N/A   Clear